Location: Big Meadows
(38.5260°N, 78.4400°W)
Time: 07:59:39
(UTC-04:00)

Amateur Radio Satellites - All Passes

Search period start: 28 March 2017 07:29
Search period end: 29 March 2017 07:29
Location: Big Meadows, 38.5260°N, 78.4400°W

Satellite Date Start Highest point End Downlink Frequencies (MHz)
Time Altitude Azimuth
YUBILEINY 28 Mar 07:30:36 07:38:40 43° 88° (E) 07:46:41 435.215
AO-7 28 Mar 07:44:25 07:46:42 11° 315° (NW) 07:49:01 .
STRAND 1 28 Mar 07:45:37 07:50:45 80° 76° (ENE) 07:55:56 437.568
XW-2F 28 Mar 07:49:55 07:53:31 46° 286° (WNW) 07:57:05 145.980 - 146.000
XW-2A 28 Mar 07:54:36 07:57:08 20° 95° (E) 07:59:40 145.665 - 145.685
LilacSat-2 28 Mar 07:54:37 07:58:07 37° 287° (WNW) 08:01:36 437.200
HO-68 28 Mar 07:54:59 08:01:03 29° 96° (E) 08:07:04 435.675
CUTE 1.7 + AOD 2 28 Mar 07:56:10 07:59:18 20° 94° (E) 08:02:25 437.475
NUDT-PHONESAT 28 Mar 08:10:20 08:13:36 30° 288° (WNW) 08:16:50 437.300
XW-2D 28 Mar 08:17:41 08:20:30 20° 290° (WNW) 08:23:18 145.860 - 145.880
KAITUO 1B 28 Mar 08:20:09 08:23:08 24° 289° (WNW) 08:26:07 145.475/437.950
XW-2B 28 Mar 08:23:51 08:26:27 18° 291° (WNW) 08:29:03 145.730 - 145.750
BEESAT 3 28 Mar 08:25:51 08:29:24 31° 246° (WSW) 08:32:55 437.485
XW-2C 28 Mar 08:34:42 08:36:38 14° 293° (WNW) 08:38:34 145.795 - 145.815
BEESAT 2 28 Mar 08:45:11 08:49:07 50° 244° (WSW) 08:53:01 435.950
CUTE-I 28 Mar 08:50:29 08:54:34 23° 295° (WNW) 08:58:37 437.470
DOVE 4 28 Mar 08:51:32 08:54:04 14° 298° (WNW) 08:56:35 437.250
UWE-3 28 Mar 08:55:41 08:59:12 25° 95° (E) 09:02:37 435.000/436.395/437.385
AAUSAT CUBESAT 2 28 Mar 08:59:49 09:03:35 33° 97° (E) 09:07:20 437.432
JUGNU 28 Mar 09:08:50 09:10:48 12° 178° (S) 09:12:47 437.505
PRISM 28 Mar 09:12:51 09:15:56 21° 68° (ENE) 09:19:02 437.425
SEEDS 28 Mar 09:20:38 09:24:47 63° 285° (WNW) 09:28:56 437.485
Oscar 11 28 Mar 09:21:28 09:24:48 22° 95° (E) 09:28:07 .
XW-2A 28 Mar 09:27:21 09:29:47 19° 290° (WNW) 09:32:11 145.665 - 145.685
YUBILEINY 28 Mar 09:27:26 09:35:26 39° 286° (WNW) 09:43:28 435.215
STRAND 1 28 Mar 09:29:22 09:30:29 11° 270° (W) 09:31:36 437.568
CUTE 1.7 + AOD 2 28 Mar 09:31:26 09:35:08 30° 289° (WNW) 09:38:51 437.475
ZACube-1 28 Mar 09:31:56 09:35:50 36° 97° (E) 09:39:39 437.345
CUBEBUG 2 28 Mar 09:32:43 09:37:05 70° 285° (WNW) 09:41:17 437.445
PCSat 28 Mar 09:34:42 09:39:58 56° 113° (ESE) 09:45:16 145.827
FO-29 28 Mar 09:39:57 09:46:03 27° 64° (ENE) 09:51:51 435.910
HO-68 28 Mar 09:42:06 09:48:57 51° 292° (WNW) 09:55:49 435.675
AO-73 28 Mar 09:59:01 10:03:13 71° 102° (ESE) 10:07:19 145.935
DELFI C3 28 Mar 10:03:18 10:06:04 18° 94° (E) 10:08:49 145.870
TIGRISAT 28 Mar 10:23:23 10:28:01 64° 75° (ENE) 10:32:38 435.000
UWE-3 28 Mar 10:32:04 10:35:34 25° 291° (WNW) 10:38:59 435.000/436.395/437.385
UNISAT 6 28 Mar 10:34:06 10:38:47 89° 85° (E) 10:43:28 437.425
AAUSAT CUBESAT 2 28 Mar 10:35:53 10:38:48 19° 292° (WNW) 10:41:41 437.432
AIST 2D 28 Mar 10:46:32 10:47:48 12° 67° (ENE) 10:49:05 435.315
PRISM 28 Mar 10:47:34 10:51:03 27° 263° (W) 10:54:34 437.425
Oscar 11 28 Mar 10:57:11 11:00:56 29° 289° (WNW) 11:04:39 .
ZACube-1 28 Mar 11:09:05 11:11:49 17° 293° (WNW) 11:14:31 437.345
POLYITAN 1 28 Mar 11:10:59 11:13:48 17° 66° (ENE) 11:16:35 437.675
QB50P2 28 Mar 11:15:17 11:18:27 21° 68° (ENE) 11:21:38 145.880/145.840
SRMSAT 28 Mar 11:15:27 11:17:26 12° 175° (S) 11:19:26 437.500
PCSat 28 Mar 11:19:34 11:23:42 22° 311° (NW) 11:27:52 145.827
FO-29 28 Mar 11:22:47 11:30:33 65° 259° (W) 11:37:52 435.910
DUCHIFAT 1 28 Mar 11:24:31 11:27:35 20° 67° (ENE) 11:30:40 145.980
RS-15 28 Mar 11:28:46 11:38:04 28° 101° (ESE) 11:47:34 29.354- 29.394
DELFI C3 28 Mar 11:37:22 11:40:52 30° 289° (WNW) 11:44:23 145.870
ESTCUBE 1 28 Mar 11:57:52 12:01:32 24° 95° (E) 12:05:12 437.505/2401.250
TIGRISAT 28 Mar 12:03:20 12:05:04 12° 270° (W) 12:06:47 435.000
NANOSAT C BR1 28 Mar 12:10:17 12:14:31 73° 76° (ENE) 12:18:47 145.865
EO-79 28 Mar 12:16:07 12:20:24 87° 259° (W) 12:24:41 145.935-145.965
AIST 2D 28 Mar 12:17:20 12:20:39 38° 262° (W) 12:23:59 435.315
LO-87 28 Mar 12:35:40 12:39:13 50° 285° (WNW) 12:42:43 145.935 - 145.965
POLYITAN 1 28 Mar 12:45:14 12:49:15 39° 262° (W) 12:53:17 437.675
QB50P2 28 Mar 12:50:12 12:54:01 32° 263° (W) 12:57:52 145.880/145.840
Oscar 19 28 Mar 12:54:56 12:58:55 23° 66° (ENE) 13:02:54 437.125/150
DUCHIFAT 1 28 Mar 12:59:10 13:03:01 33° 263° (W) 13:06:52 145.980
VELOX 1 28 Mar 13:01:21 13:05:26 35° 98° (E) 13:09:31 145.980
SRMSAT 28 Mar 13:03:58 13:05:42 11° 186° (S) 13:07:26 437.500
BUGSAT 1 28 Mar 13:06:26 13:10:39 86° 253° (WSW) 13:14:56 437.445
UKube-1 28 Mar 13:10:09 13:11:25 11° 91° (E) 13:12:39 .
50 SAT 28 Mar 13:21:20 13:24:34 34° 98° (E) 13:27:48 437.505
Gurwin Techsat 1B 28 Mar 13:25:10 13:29:31 26° 67° (ENE) 13:33:54 435.225
NO-84 28 Mar 13:29:00 13:31:49 29° 39° (NE) 13:34:49 435.350 FM
SPROUT 28 Mar 13:30:07 13:34:23 67° 101° (ESE) 13:38:37 437.525
ESTCUBE 1 28 Mar 13:34:24 13:38:18 29° 290° (WNW) 13:42:11 437.505/2401.250
RS-15 28 Mar 13:37:11 13:49:11 80° 302° (WNW) 14:01:39 29.354- 29.394
SO-50 28 Mar 13:59:27 14:03:09 24° 112° (ESE) 14:06:49 436.795
DX 1 28 Mar 14:07:33 14:11:58 78° 102° (ESE) 14:16:21 434.975-435.025
Oscar 19 28 Mar 14:33:12 14:37:58 39° 262° (W) 14:42:46 437.125/150
VELOX 1 28 Mar 14:38:21 14:41:38 20° 293° (WNW) 14:44:55 145.980
UKube-1 28 Mar 14:43:30 14:47:46 58° 286° (WNW) 14:52:00 .
ITAMSAT 1 28 Mar 14:46:08 14:50:21 25° 66° (ENE) 14:54:33 435.822/435.867
AO-7 28 Mar 14:53:01 15:00:32 40° 62° (ENE) 15:08:02 .
50 SAT 28 Mar 14:55:41 14:57:17 13° 293° (WNW) 14:58:53 437.505
Gurwin Techsat 1B 28 Mar 15:04:23 15:09:16 37° 262° (W) 15:14:11 435.225
NO-84 28 Mar 15:06:37 15:09:16 22° 231° (SW) 15:12:05 435.350 FM
SPROUT 28 Mar 15:08:52 15:09:42 10° 297° (WNW) 15:10:31 437.525
MOZHAYETS 4 28 Mar 15:36:45 15:39:05 14° 91° (E) 15:41:26
BEESAT 28 Mar 15:37:13 15:41:35 35° 98° (E) 15:45:54 436.000
SO-50 28 Mar 15:39:06 15:43:25 37° 308° (NW) 15:47:41 436.795
RS-15 28 Mar 15:53:57 16:04:01 29° 329° (NNW) 16:14:17 29.354- 29.394
ITUPSAT 1 28 Mar 15:54:42 15:59:22 53° 100° (E) 16:03:59 437.325
ITAMSAT 1 28 Mar 16:24:45 16:29:35 38° 262° (W) 16:34:26 435.822/435.867
O/OREOS (USA 219) 28 Mar 16:32:55 16:37:00 34° 104° (ESE) 16:41:08 437.305
KKS-1 28 Mar 16:39:15 16:41:16 13° 92° (E) 16:43:16 437.445
AO-7 28 Mar 16:45:14 16:53:06 46° 259° (W) 17:01:01 .
STARS 28 Mar 17:09:42 17:11:10 11° 91° (E) 17:12:38 437.465
MOZHAYETS 4 28 Mar 17:12:06 17:16:32 51° 287° (WNW) 17:20:56
BEESAT 28 Mar 17:15:26 17:19:07 23° 293° (WNW) 17:22:48 436.000
XW-2D 28 Mar 17:25:56 17:26:23 10° 65° (ENE) 17:26:49 145.860 - 145.880
XW-2B 28 Mar 17:30:59 17:32:20 12° 66° (ENE) 17:33:41 145.730 - 145.750
ITUPSAT 1 28 Mar 17:33:53 17:36:44 16° 296° (WNW) 17:39:33 437.325
XW-2C 28 Mar 17:40:15 17:42:31 15° 68° (ENE) 17:44:48 145.795 - 145.815
YUBILEINY 28 Mar 17:43:19 17:49:08 19° 65° (ENE) 17:54:55 435.215
CUBESAT XI-V 28 Mar 18:10:04 18:14:43 78° 285° (WNW) 18:19:24 437.345
O/OREOS (USA 219) 28 Mar 18:12:57 18:16:28 22° 301° (WNW) 18:20:02 437.305
KKS-1 28 Mar 18:13:45 18:18:08 54° 286° (WNW) 18:22:28 437.445
RS-15 28 Mar 18:14:34 18:22:38 19° 5° (N) 18:30:37 29.354- 29.394
DOVE 4 28 Mar 18:15:18 18:19:56 62° 74° (ENE) 18:24:53 437.250
HO-68 28 Mar 18:23:40 18:28:28 20° 57° (ENE) 18:33:16 435.675
PCSat 28 Mar 18:24:06 18:29:02 34° 54° (NE) 18:33:55 145.827
XW-2F 28 Mar 18:28:53 18:32:38 60° 75° (ENE) 18:36:21 145.980 - 146.000
CUTE-I 28 Mar 18:29:56 18:35:14 63° 73° (ENE) 18:40:34 437.470
LilacSat-2 28 Mar 18:34:21 18:38:10 79° 78° (ENE) 18:41:59 437.200
STARS 28 Mar 18:43:30 18:47:51 58° 286° (WNW) 18:52:10 437.465
NUDT-PHONESAT 28 Mar 18:47:28 18:51:13 88° 78° (ENE) 18:54:58 437.300
CUTE 1.7 + AOD 2 28 Mar 18:48:49 18:50:37 13° 65° (ENE) 18:52:25 437.475
XW-2D 28 Mar 18:56:22 19:00:05 53° 260° (W) 19:03:49 145.860 - 145.880
KAITUO 1B 28 Mar 18:57:46 19:01:30 66° 260° (W) 19:05:13 145.475/437.950
XW-2B 28 Mar 19:02:26 19:06:06 45° 261° (W) 19:09:46 145.730 - 145.750
XW-2C 28 Mar 19:12:59 19:16:26 33° 262° (W) 19:19:54 145.795 - 145.815
Tancredo 1 28 Mar 19:22:04 19:24:13 17° 130° (SE) 19:26:24 437.200
ISS 28 Mar 19:32:22 19:34:50 20° 131° (SE) 19:37:18 437.550
YUBILEINY 28 Mar 19:38:17 19:47:01 84° 265° (W) 19:55:45 435.215
AO-85 28 Mar 19:42:21 19:44:37 14° 110° (ESE) 19:46:48 145.980
AAUSAT CUBESAT 2 28 Mar 19:49:12 19:52:03 18° 68° (ENE) 19:54:54 437.432
UWE-3 28 Mar 19:51:14 19:54:34 20° 67° (ENE) 19:57:52 435.000/436.395/437.385
M-CUBED/EXP-1 PRIME 28 Mar 19:52:36 19:57:18 85° 109° (ESE) 20:01:57 437.505
DOVE 4 28 Mar 19:56:02 19:58:07 13° 272° (W) 20:00:14 437.250
XW-2A 28 Mar 19:56:03 19:59:29 76° 259° (W) 20:02:56 145.665 - 145.685
STRAND 1 28 Mar 19:58:01 20:02:29 30° 96° (E) 20:06:55 437.568
PCSat 28 Mar 20:07:33 20:12:21 32° 251° (WSW) 20:17:06 145.827
HO-68 28 Mar 20:08:13 20:15:22 79° 255° (WSW) 20:22:33 435.675
SEEDS 28 Mar 20:10:23 20:14:30 71° 77° (ENE) 20:18:39 437.485
CUTE-I 28 Mar 20:12:41 20:15:41 15° 269° (W) 20:18:42 437.470
Oscar 11 28 Mar 20:15:46 20:18:12 15° 66° (ENE) 20:20:37 .
CUTE 1.7 + AOD 2 28 Mar 20:21:52 20:25:58 52° 260° (W) 20:30:06 437.475
ZACube-1 28 Mar 20:26:07 20:29:53 26° 70° (ENE) 20:33:36 437.345
CUBEBUG 2 28 Mar 20:28:16 20:33:01 79° 77° (ENE) 20:37:44 437.445
RS-15 28 Mar 20:29:19 20:40:26 37° 39° (NE) 20:51:07 29.354- 29.394
AO-73 28 Mar 20:52:27 20:56:45 45° 73° (ENE) 21:01:01 145.935
Tancredo 1 28 Mar 20:57:07 21:00:06 41° 326° (NW) 21:03:08 437.200
ISS 28 Mar 21:08:02 21:11:06 38° 327° (NNW) 21:14:12 437.550
AO-85 28 Mar 21:20:18 21:24:39 53° 303° (WNW) 21:28:44 145.980
AAUSAT CUBESAT 2 28 Mar 21:23:35 21:27:16 32° 263° (W) 21:30:58 437.432
UWE-3 28 Mar 21:26:22 21:30:43 39° 262° (W) 21:35:03 435.000/436.395/437.385
M-CUBED/EXP-1 PRIME 28 Mar 21:29:34 21:31:02 11° 303° (WNW) 21:32:30 437.505
STRAND 1 28 Mar 21:37:10 21:41:34 30° 292° (WNW) 21:45:57 437.568
YUBILEINY 28 Mar 21:38:09 21:42:23 15° 283° (WNW) 21:46:37 435.215
Oscar 11 28 Mar 21:49:47 21:53:55 46° 261° (W) 21:58:05 .
HO-68 28 Mar 22:01:51 22:04:04 11° 272° (W) 22:06:17 435.675
ZACube-1 28 Mar 22:02:10 22:06:02 27° 264° (W) 22:09:52 437.345
BEESAT 3 28 Mar 22:13:37 22:17:28 57° 117° (ESE) 22:21:21 437.485
TIGRISAT 28 Mar 22:18:11 22:20:24 14° 91° (E) 22:22:37 435.000
DELFI C3 28 Mar 22:20:37 22:24:29 67° 258° (WSW) 22:28:25 145.870
UNISAT 6 28 Mar 22:28:18 22:31:31 20° 94° (E) 22:34:40 437.425
PRISM 28 Mar 22:29:32 22:33:29 40° 99° (E) 22:37:25 437.425
AO-73 28 Mar 22:30:29 22:33:10 15° 268° (W) 22:35:49 145.935
SO-50 28 Mar 22:32:02 22:34:56 17° 44° (NE) 22:37:50 436.795
BEESAT 2 28 Mar 22:35:02 22:38:39 36° 115° (ESE) 22:42:20 435.950
Tancredo 1 28 Mar 22:35:59 22:36:55 11° 345° (NNW) 22:37:51 437.200
FO-29 28 Mar 22:37:00 22:40:31 17° 89° (E) 22:43:51 435.910
RS-15 28 Mar 22:41:56 22:54:09 77° 244° (WSW) 23:05:46 29.354- 29.394
ISS 28 Mar 22:47:17 22:48:19 11° 346° (NNW) 22:49:21 437.550
ESTCUBE 1 28 Mar 22:56:28 22:59:38 19° 67° (ENE) 23:02:50 437.505/2401.250
LO-87 28 Mar 23:10:02 23:13:28 46° 74° (ENE) 23:16:58 145.935 - 145.965
AIST 2D 28 Mar 23:44:42 23:46:52 15° 94° (E) 23:49:01 435.315
TIGRISAT 28 Mar 23:53:10 23:57:22 46° 287° (WNW) 00:01:28 435.000
BEESAT 3 28 Mar 23:53:17 23:55:24 14° 315° (NW) 23:57:34 437.485
50 SAT 28 Mar 23:55:31 23:56:36 11° 66° (ENE) 23:57:40 437.505
VELOX 1 28 Mar 23:57:20 00:01:00 26° 69° (ENE) 00:04:41 145.980
NANOSAT C BR1 28 Mar 23:57:52 23:59:44 13° 92° (E) 00:01:36 145.865
EO-79 29 Mar 00:03:21 00:06:04 16° 93° (E) 00:08:46 145.935-145.965
UNISAT 6 29 Mar 00:04:22 00:08:17 32° 290° (WNW) 00:12:07 437.425
PRISM 29 Mar 00:05:55 00:08:25 16° 294° (WNW) 00:10:56 437.425
SO-50 29 Mar 00:11:21 00:15:47 60° 242° (WSW) 00:20:11 436.795
BEESAT 2 29 Mar 00:13:36 00:16:32 19° 312° (NW) 00:19:30 435.950
FO-29 29 Mar 00:20:28 00:26:11 56° 289° (WNW) 00:31:22 435.910
SPROUT 29 Mar 00:21:48 00:25:49 41° 73° (ENE) 00:29:53 437.525
POLYITAN 1 29 Mar 00:31:21 00:35:14 35° 98° (E) 00:39:04 437.675
ESTCUBE 1 29 Mar 00:32:02 00:36:10 37° 262° (W) 00:40:19 437.505/2401.250
QB50P2 29 Mar 00:35:59 00:40:02 43° 99° (E) 00:44:02 145.880/145.840
DUCHIFAT 1 29 Mar 00:44:10 00:48:09 40° 99° (E) 00:52:04 145.980
BUGSAT 1 29 Mar 00:51:04 00:53:27 15° 93° (E) 00:55:48 437.445
RS-15 29 Mar 00:58:01 01:04:21 16° 264° (W) 01:10:35 29.354- 29.394
DX 1 29 Mar 01:01:21 01:05:34 54° 73° (ENE) 01:09:51 434.975-435.025
AIST 2D 29 Mar 01:17:10 01:20:05 25° 288° (WNW) 01:22:59 435.315
50 SAT 29 Mar 01:26:03 01:29:15 37° 261° (W) 01:32:30 437.505
NANOSAT C BR1 29 Mar 01:31:38 01:35:42 48° 287° (WNW) 01:39:43 145.865
VELOX 1 29 Mar 01:33:40 01:37:21 26° 264° (W) 01:41:04 145.980
UKube-1 29 Mar 01:36:01 01:40:20 86° 257° (WSW) 01:44:40 .
EO-79 29 Mar 01:38:02 01:41:57 37° 288° (WNW) 01:45:49 145.935-145.965
Gurwin Techsat 1B 29 Mar 01:45:17 01:46:15 10° 89° (E) 01:47:13 435.225
Tancredo 1 29 Mar 01:49:02 01:51:25 19° 25° (NNE) 01:53:48 437.200
SPROUT 29 Mar 01:59:19 02:01:54 16° 267° (W) 02:04:30 437.525
ISS 29 Mar 02:00:55 02:03:32 21° 27° (NNE) 02:06:08 437.550
POLYITAN 1 29 Mar 02:07:50 02:10:44 18° 293° (WNW) 02:13:37 437.675
QB50P2 29 Mar 02:12:59 02:15:26 15° 294° (WNW) 02:17:52 145.880/145.840
DUCHIFAT 1 29 Mar 02:20:54 02:23:28 16° 294° (WNW) 02:26:01 145.980
BUGSAT 1 29 Mar 02:25:05 02:28:58 39° 288° (WNW) 02:32:48 437.445
MOZHAYETS 4 29 Mar 02:38:10 02:40:01 12° 63° (ENE) 02:41:51
DX 1 29 Mar 02:40:23 02:42:04 12° 268° (W) 02:43:45 434.975-435.025
BEESAT 29 Mar 02:42:06 02:46:26 35° 70° (ENE) 02:50:45 436.000
O/OREOS (USA 219) 29 Mar 02:43:52 02:48:24 53° 66° (ENE) 02:52:52 437.305
Oscar 19 29 Mar 02:45:36 02:50:48 81° 105° (ESE) 02:55:59 437.125/150
ITUPSAT 1 29 Mar 02:59:47 03:04:26 53° 73° (ENE) 03:09:06 437.325
AO-7 29 Mar 03:01:05 03:01:55 10° 88° (E) 03:02:45 .
Gurwin Techsat 1B 29 Mar 03:21:27 03:26:48 84° 284° (WNW) 03:32:06 435.225
Tancredo 1 29 Mar 03:24:37 03:27:46 57° 222° (SW) 03:30:53 437.200
ISS 29 Mar 03:36:58 03:40:10 49° 224° (SW) 03:43:21 437.550
KKS-1 29 Mar 03:37:12 03:38:21 11° 62° (ENE) 03:39:31 437.445
MOZHAYETS 4 29 Mar 04:12:02 04:16:36 65° 259° (W) 04:21:10
BEESAT 29 Mar 04:20:32 04:24:15 22° 265° (W) 04:27:58 436.000
O/OREOS (USA 219) 29 Mar 04:25:02 04:27:17 14° 262° (W) 04:29:32 437.305
Oscar 19 29 Mar 04:27:19 04:29:24 12° 299° (WNW) 04:31:28 437.125/150
ITAMSAT 1 29 Mar 04:38:30 04:43:44 85° 105° (ESE) 04:48:54 435.822/435.867
ITUPSAT 1 29 Mar 04:39:51 04:42:32 15° 268° (W) 04:45:15 437.325
AO-7 29 Mar 04:47:45 04:56:01 68° 105° (ESE) 05:04:15 .
Gurwin Techsat 1B 29 Mar 05:04:55 05:05:52 10° 301° (WNW) 05:06:49 435.225
KKS-1 29 Mar 05:09:50 05:14:17 72° 259° (WSW) 05:18:46 437.445
CUBESAT XI-V 29 Mar 05:11:35 05:16:09 86° 80° (E) 05:20:46 437.345
STARS 29 Mar 05:38:06 05:42:31 81° 257° (WSW) 05:46:59 437.465
AO-85 29 Mar 05:52:32 05:56:30 79° 61° (ENE) 06:00:34 145.980
DOVE 4 29 Mar 06:16:14 06:20:18 22° 92° (E) 06:24:14 437.250
ITAMSAT 1 29 Mar 06:20:38 06:22:26 12° 300° (WNW) 06:24:13 435.822/435.867
NO-84 29 Mar 06:23:18 06:26:13 77° 134° (SE) 06:29:04 435.350 FM
XW-2D 29 Mar 06:31:15 06:33:39 16° 93° (E) 06:36:04 145.860 - 145.880
KAITUO 1B 29 Mar 06:32:05 06:33:42 12° 92° (E) 06:35:19 145.475/437.950
BEESAT 3 29 Mar 06:32:06 06:35:20 23° 50° (NE) 06:38:33 437.485
XW-2B 29 Mar 06:37:02 06:39:43 18° 94° (E) 06:42:23 145.730 - 145.750
M-CUBED/EXP-1 PRIME 29 Mar 06:37:15 06:40:58 80° 72° (ENE) 06:45:02 437.505
AO-7 29 Mar 06:41:32 06:48:06 27° 303° (WNW) 06:54:41 .
YUBILEINY 29 Mar 06:43:26 06:49:43 23° 81° (E) 06:55:59 435.215
XW-2C 29 Mar 06:46:58 06:50:06 25° 96° (E) 06:53:14 145.795 - 145.815
CUTE-I 29 Mar 06:48:56 06:53:29 28° 96° (E) 06:58:00 437.470
BEESAT 2 29 Mar 06:54:30 06:57:11 17° 47° (NE) 06:59:52 435.950
STRAND 1 29 Mar 07:12:20 07:17:03 38° 70° (ENE) 07:21:46 437.568
